Flag for U.S.A. Weather past 2 weeks in Moreno Valley, California, U.S.A.

Now
55 °F

Passing clouds.


Feels Like: 55 °F
Forecast: 51 / 64 °F
Wind: 2 mph from South

Location: Riverside / March Air Force Base

Current Time: Jan 26, 2015 at 12:27:53 AM

Latest Report: Jan 25, 2015 at 11:58 PM


Visibility: 10 mi

Pressure: 30.04 "Hg

Humidity: 43%

Dew point: 33 °F

Location of Moreno ValleyLocation

Historic Weather in Moreno Valley — Graph

°F

Moreno Valley temperature yesterday

Maximum temperature yesterday: 75 °F (at 10:58 AM)
Minimum temperature yesterday: 45 °F (at 3:58 AM)
Average temperature yesterday: 61 °F

Past Weeks' High & Low Weather Summary

 TemperatureHumidityPressure
High75 °F (Jan 25, 10:58 AM)100% (Jan 11, 12:58 AM)30.28 "Hg (Jan 11, 12:58 AM)
Low33 °F (Jan 15, 6:58 AM)10% (Jan 23, 11:58 AM)29.90 "Hg (Jan 20, 3:58 PM)
Average53 °F61%30.12 "Hg
* Reported Jan 10 11:58 PM — Jan 25 10:58 PM, Moreno Valley, Weather by CustomWeather, © 2014

Note: Actual official high and low records may vary slightly from our data, if they occured in-between our weather recording intervals... More about our weather records

Advertising

Moreno Valley weather history for previous 24 hours

 ConditionsComfort  
Time TempWeatherWind HumidityBarometerVisibility
10:58 PM
Jan 25
49 °FClear.5 mph55%30.05 "Hg10 mi
9:58 PM48 °FClear.3 mph61%30.05 "Hg10 mi
8:58 PM53 °FClear.5 mph48%30.06 "Hg10 mi
7:58 PM60 °FClear.No wind33%30.06 "Hg10 mi
6:58 PM67 °FClear.5 mph26%30.04 "Hg10 mi
5:58 PM67 °FPassing clouds.7 mph25%30.01 "Hg10 mi
4:58 PM72 °FSunny.9 mph20%29.99 "Hg10 mi
3:58 PM72 °FPassing clouds.15 mph20%29.98 "Hg10 mi
2:58 PM73 °FSunny.10 mph17%29.98 "Hg10 mi
1:58 PM75 °FPassing clouds.15 mph18%29.97 "Hg10 mi
12:58 PM75 °FSunny.12 mph18%29.99 "Hg10 mi
11:58 AM74 °FSunny.16 mph19%30.02 "Hg10 mi
10:58 AM75 °FSunny.16 mph19%30.04 "Hg10 mi
9:58 AM73 °FSunny.12 mph19%30.06 "Hg10 mi
8:58 AM69 °FSunny.8 mph21%30.06 "Hg10 mi
7:58 AM55 °FSunny.7 mph37%30.07 "Hg10 mi
6:58 AM46 °FSunny.7 mph47%30.07 "Hg10 mi
5:58 AM45 °FClear.5 mph49%30.06 "Hg10 mi
4:58 AM45 °FClear.10 mph46%30.06 "Hg10 mi
3:58 AM45 °FClear.8 mph47%30.06 "Hg10 mi
2:58 AM53 °FClear.8 mph30%30.05 "Hg10 mi
1:58 AM50 °FClear.8 mph37%30.06 "Hg10 mi
12:58 AM51 °FClear.6 mph33%30.07 "Hg10 mi
Weather by CustomWeather, © 2014

See weather overviewHow to use our weather pages